Lawrenceville, IL

10:05 AM CST on February 20, 2018 (GMT -0600)
Lawrenceville-Vincennes International

Weather History for KLWV - April, 2013

Change the Weather History Date:

Thursday, April 11, 2013

  Actual Average Record
Temperature  
Mean Temperature 54 °F 54 °F  
Max Temperature 66 °F 65 °F 84 °F (2001)
Min Temperature 42 °F 44 °F 32 °F (2012)
Degree Days  
Heating Degree Days 11 11  
Month to date heating degree days 128 143  
Since 1 July heating degree days 4643 4440  
Cooling Degree Days 0 1  
Month to date cooling degree days 16 5  
Year to date cooling degree days 16 7  
Growing Degree Days 8 (Base 50)    
Moisture  
Dew Point 55 °F    
Average Humidity 85    
Maximum Humidity 100    
Minimum Humidity 70    
Precipitation  
Precipitation 0.47 in 0.11 in 1.19 in (2016)
Month to date precipitation 1.68 1.23  
Year to date precipitation 13.49 9.05  
Sea Level Pressure  
Sea Level Pressure 29.68 in    
Wind  
Wind Speed 12 mph (West)    
Max Wind Speed 36 mph    
Max Gust Speed 48 mph    
Visibility 6 miles    
Events Rain , Thunderstorm    
T = Trace of Precipitation, MM = Missing Value Source: NWS Daily Summary

Daily Weather History Graph

Daily Weather History Graph

Search for Another Location

Airport or City:

Trip Planner

Search our weather history database for the weather conditions in past years. The results will help you decide how hot, cold, wet, or windy it might be!

Date:

Astronomy

Apr. 11, 2013 Rise Set
Actual Time 6:19 AM CDT 7:23 PM CDT
Civil Twilight 5:52 AM CDT 7:51 PM CDT
Nautical Twilight 5:19 AM CDT 8:23 PM CDT
Astronomical Twilight 4:46 AM CDT 8:57 PM CDT
Moon 6:51 AM CDT (4/11) 8:56 PM CDT (4/11)
Length of Visible Light 13h 58m
Length of Day
13h 04m
New Moon, 2% of the Moon is Illuminated
Apr 11
New Moon
Apr 18
First Quarter
Apr 25
Full
May 2
Last Quarter
May 9
New

Hourly Weather History & Observations

Time (CDT) Temp. Windchill Dew Point Humidity Pressure Visibility Wind Dir Wind Speed Gust Speed Precip Events Conditions
12:00 AM 71.6 °F - 62.6 °F 73% 29.73 in 9.0 mi West 9.2 mph - 0.00 in Rain , Thunderstorm Light Rain
12:17 AM 64.4 °F - 60.8 °F 88% 29.75 in 1.8 mi NW 20.7 mph 28.8 mph 0.12 in Rain , Thunderstorm Rain
12:21 AM 62.6 °F - 60.8 °F 94% 29.75 in 1.5 mi NW 20.7 mph - 0.13 in Rain , Thunderstorm Heavy Rain
12:41 AM 62.6 °F - 60.8 °F 94% 29.77 in 0.8 mi NW 25.3 mph 33.4 mph 0.49 in Rain , Thunderstorm Heavy Rain
12:53 AM 62.1 °F - 60.1 °F 93% 29.77 in 2.5 mi WNW 13.8 mph 29.9 mph 0.58 in Rain , Thunderstorm Thunderstorms and Rain
1:00 AM 62.6 °F - 60.8 °F 94% 29.78 in 9.0 mi WNW 11.5 mph - 0.00 in Rain , Thunderstorm Light Thunderstorms and Rain
1:12 AM 62.6 °F - 60.8 °F 94% 29.77 in 10.0 mi NW 9.2 mph - 0.00 in   Mostly Cloudy
1:53 AM 63.0 °F - 60.1 °F 90% 29.74 in 5.0 mi Calm Calm - 0.02 in Rain Light Rain
2:20 AM 62.6 °F - 60.8 °F 94% 29.78 in 2.0 mi SSE 9.2 mph - 0.12 in Rain , Thunderstorm Heavy Rain
2:28 AM 60.8 °F - 60.8 °F 100% 29.78 in 1.5 mi South 8.1 mph - 0.21 in Rain , Thunderstorm Heavy Rain
2:37 AM 62.6 °F - 60.8 °F 94% 29.76 in 2.5 mi SSW 6.9 mph - 0.25 in Rain , Thunderstorm Heavy Rain
2:49 AM 62.6 °F - 60.8 °F 94% 29.74 in 4.0 mi South 5.8 mph - 0.28 in Rain Rain
2:53 AM 63.0 °F - 61.0 °F 93% 29.72 in 5.0 mi South 5.8 mph - 0.29 in Rain Light Rain
3:53 AM 66.0 °F - 60.1 °F 81% 29.65 in 10.0 mi South 25.3 mph 31.1 mph 0.03 in   Overcast
4:53 AM 66.0 °F - 60.1 °F 81% 29.62 in 10.0 mi South 15.0 mph - 0.00 in   Clear
5:53 AM 64.0 °F - 61.0 °F 90% 29.64 in 10.0 mi SSE 15.0 mph - N/A   Scattered Clouds
6:53 AM 63.0 °F - 61.0 °F 93% 29.62 in 10.0 mi SSE 13.8 mph - N/A   Partly Cloudy
7:53 AM 66.0 °F - 61.0 °F 84% 29.63 in 10.0 mi South 18.4 mph 24.2 mph N/A   Mostly Cloudy
8:36 AM 66.2 °F - 60.8 °F 83% 29.66 in 10.0 mi SSW 16.1 mph - N/A   Overcast
8:53 AM 64.9 °F - 61.0 °F 87% 29.66 in 10.0 mi WSW 17.3 mph - N/A   Overcast
9:04 AM 62.6 °F - 60.8 °F 94% 29.67 in 10.0 mi WSW 11.5 mph - N/A   Overcast
9:53 AM 60.1 °F - 57.9 °F 93% 29.68 in 10.0 mi West 5.8 mph - 0.00 in   Overcast
10:24 AM 60.8 °F - 57.2 °F 88% 29.69 in 10.0 mi West 4.6 mph - N/A   Overcast
10:53 AM 60.1 °F - 57.9 °F 93% 29.70 in 9.0 mi SW 5.8 mph - N/A   Overcast
11:41 AM 59.0 °F - 57.2 °F 94% 29.68 in 3.0 mi SW 8.1 mph - 0.01 in Rain Light Rain
11:47 AM 59.0 °F - 57.2 °F 94% 29.68 in 1.8 mi SW 6.9 mph - 0.01 in Rain Light Rain
11:48 AM 59.0 °F - 57.0 °F 93% 29.68 in 1.8 mi SW 6.9 mph - 0.01 in Rain Light Rain
12:19 PM 57.2 °F - 57.2 °F 100% 29.66 in 6.0 mi WSW 6.9 mph - 0.00 in Rain Light Rain
12:53 PM 59.0 °F - 57.0 °F 93% 29.68 in 9.0 mi WSW 10.4 mph - 0.00 in   Overcast
1:11 PM 59.0 °F - 57.2 °F 94% 29.67 in 10.0 mi WSW 10.4 mph - 0.00 in Rain Light Rain
1:30 PM 57.2 °F - 57.2 °F 100% 29.66 in 5.0 mi WSW 6.9 mph - 0.01 in Rain Light Rain
1:37 PM 57.2 °F - 57.2 °F 100% 29.66 in 5.0 mi WSW 6.9 mph - 0.01 in Rain Light Rain
1:53 PM 57.9 °F - 55.9 °F 93% 29.65 in 4.0 mi WSW 9.2 mph - 0.03 in Rain Rain
2:09 PM 57.2 °F - 55.4 °F 94% 29.66 in 3.0 mi WSW 8.1 mph - 0.02 in Rain Light Rain
2:53 PM 55.9 °F - 54.0 °F 93% 29.66 in 10.0 mi West 6.9 mph - 0.04 in Rain Light Rain
3:15 PM 53.6 °F - 53.6 °F 100% 29.65 in 6.0 mi WNW 10.4 mph - 0.00 in Rain Light Rain
3:29 PM 53.6 °F - 53.6 °F 100% 29.65 in 5.0 mi WNW 9.2 mph - 0.00 in Rain Light Rain
3:53 PM 54.0 °F - 53.1 °F 97% 29.65 in 5.0 mi WNW 9.2 mph - 0.01 in Rain Light Rain
4:12 PM 53.6 °F - 51.8 °F 94% 29.63 in 2.0 mi West 12.7 mph - 0.01 in Rain Light Rain
4:23 PM 53.6 °F - 51.8 °F 94% 29.63 in 1.5 mi WNW 12.7 mph - 0.02 in Rain Light Rain
4:31 PM 53.6 °F - 51.8 °F 94% 29.63 in 2.0 mi WNW 10.4 mph - 0.02 in Rain Light Rain
4:40 PM 51.8 °F - 51.8 °F 100% 29.64 in 3.0 mi WNW 12.7 mph - 0.02 in Rain Light Rain
4:53 PM 52.0 °F - 51.1 °F 97% 29.65 in 2.5 mi WNW 11.5 mph - 0.03 in Rain Light Rain
5:00 PM 51.8 °F - 51.8 °F 100% 29.64 in 2.5 mi West 9.2 mph - 0.00 in Rain Light Rain
5:10 PM 51.8 °F - 51.8 °F 100% 29.65 in 3.0 mi West 6.9 mph - 0.01 in Rain Light Rain
5:30 PM 51.8 °F - 51.8 °F 100% 29.63 in 5.0 mi WNW 6.9 mph - 0.01 in   Overcast
5:41 PM 51.8 °F - 51.8 °F 100% 29.64 in 7.0 mi West 9.2 mph - 0.01 in   Overcast
5:53 PM 52.0 °F - 50.0 °F 93% 29.62 in 9.0 mi WNW 10.4 mph - 0.01 in   Overcast
6:09 PM 51.8 °F - 50.0 °F 94% 29.63 in 8.0 mi West 5.8 mph - N/A   Overcast
6:16 PM 51.8 °F - 50.0 °F 94% 29.62 in 8.0 mi West 6.9 mph - N/A   Overcast
6:53 PM 52.0 °F - 48.9 °F 89% 29.62 in 7.0 mi West 12.7 mph - N/A   Overcast
7:02 PM 51.8 °F - 48.2 °F 88% 29.63 in 7.0 mi West 12.7 mph 18.4 mph N/A   Overcast
7:53 PM 51.1 °F - 46.9 °F 86% 29.63 in 7.0 mi WNW 15.0 mph 21.9 mph N/A   Overcast
8:06 PM 50.0 °F - 46.4 °F 87% 29.62 in 7.0 mi WNW 12.7 mph - N/A   Overcast
8:25 PM 50.0 °F - 46.4 °F 87% 29.64 in 6.0 mi WNW 17.3 mph - N/A   Overcast
8:48 PM 48.2 °F - 44.6 °F 87% 29.65 in 8.0 mi WNW 16.1 mph - N/A   Overcast
8:53 PM 48.9 °F - 45.0 °F 86% 29.65 in 8.0 mi WNW 16.1 mph - N/A   Overcast
9:53 PM 48.0 °F - 41.0 °F 77% 29.68 in 10.0 mi WNW 15.0 mph 20.7 mph N/A   Overcast
10:28 PM 46.4 °F 39.5 °F 37.4 °F 71% 29.69 in 10.0 mi West 17.3 mph 23.0 mph N/A   Overcast
10:53 PM 46.0 °F 38.8 °F 37.9 °F 73% 29.69 in 10.0 mi WNW 18.4 mph 25.3 mph N/A   Overcast
11:53 PM 43.0 °F 34.8 °F 34.0 °F 71% 29.73 in 10.0 mi WNW 18.4 mph - N/A   Mostly Cloudy